TimeEST,TemperatureF,Dew PointF,Humidity,Sea Level PressureIn,VisibilityMPH,Wind Direction,Wind SpeedMPH,Gust SpeedMPH,PrecipitationIn,Events,Conditions,WindDirDegrees,DateUTC
12:53 AM,55.9,55.0,97,30.17,7.0,ENE,3.5,-,N/A,,Overcast,60,2013-11-16 05:53:00
1:53 AM,52.0,52.0,100,30.16,5.0,Calm,Calm,-,N/A,,Clear,0,2013-11-16 06:53:00
2:13 AM,53.6,53.6,100,30.16,2.5,NE,3.5,-,N/A,,Scattered Clouds,40,2013-11-16 07:13:00
2:18 AM,53.6,53.6,100,30.16,3.0,NE,3.5,-,N/A,,Mostly Cloudy,40,2013-11-16 07:18:00
2:27 AM,55.4,55.4,100,30.16,1.5,ENE,4.6,-,N/A,,Mostly Cloudy,60,2013-11-16 07:27:00
2:34 AM,55.4,55.4,100,30.16,0.2,NE,3.5,-,N/A,Fog,Fog,50,2013-11-16 07:34:00
2:53 AM,55.9,55.9,100,30.17,0.2,NE,4.6,-,N/A,Fog,Fog,50,2013-11-16 07:53:00
3:53 AM,55.9,55.9,100,30.17,0.2,ENE,4.6,-,N/A,Fog,Fog,60,2013-11-16 08:53:00
4:53 AM,57.0,57.0,100,30.17,0.2,East,4.6,-,N/A,Fog,Fog,80,2013-11-16 09:53:00
5:07 AM,57.2,57.2,100,30.17,0.5,East,5.8,-,N/A,Fog,Fog,90,2013-11-16 10:07:00
5:53 AM,57.0,57.0,100,30.17,0.5,East,3.5,-,N/A,Fog,Fog,80,2013-11-16 10:53:00
6:13 AM,57.2,57.2,100,30.17,2.0,NE,3.5,-,N/A,,Overcast,40,2013-11-16 11:13:00
6:28 AM,57.2,57.2,100,30.18,4.0,ENE,3.5,-,N/A,,Overcast,60,2013-11-16 11:28:00
6:34 AM,57.2,57.2,100,30.18,1.8,Calm,Calm,-,N/A,,Overcast,0,2013-11-16 11:34:00
6:46 AM,57.2,57.2,100,30.18,3.0,ENE,4.6,-,N/A,,Overcast,60,2013-11-16 11:46:00
6:53 AM,57.0,57.0,100,30.19,4.0,NE,4.6,-,N/A,,Overcast,50,2013-11-16 11:53:00
7:53 AM,57.0,57.0,100,30.18,4.0,ENE,6.9,-,N/A,,Mostly Cloudy,60,2013-11-16 12:53:00
8:53 AM,57.9,57.9,100,30.20,3.0,East,6.9,-,N/A,,Overcast,80,2013-11-16 13:53:00
9:53 AM,60.1,59.0,96,30.21,4.0,ESE,5.8,-,N/A,,Overcast,110,2013-11-16 14:53:00
10:53 AM,66.9,59.0,76,30.21,10.0,Variable,3.5,-,N/A,,Partly Cloudy,0,2013-11-16 15:53:00
11:53 AM,72.0,60.1,66,30.19,10.0,East,6.9,-,N/A,,Clear,80,2013-11-16 16:53:00
12:53 PM,73.9,57.9,57,30.15,10.0,East,9.2,-,N/A,,Clear,100,2013-11-16 17:53:00
1:53 PM,73.9,57.9,57,30.13,10.0,ENE,8.1,-,N/A,,Overcast,70,2013-11-16 18:53:00
2:53 PM,75.0,59.0,57,30.11,10.0,East,8.1,-,N/A,,Overcast,100,2013-11-16 19:53:00
3:53 PM,73.9,59.0,59,30.10,10.0,ESE,8.1,-,N/A,,Overcast,120,2013-11-16 20:53:00
4:53 PM,73.9,60.1,62,30.10,10.0,ESE,8.1,-,N/A,,Mostly Cloudy,120,2013-11-16 21:53:00
5:53 PM,72.0,60.1,66,30.12,10.0,East,3.5,-,N/A,,Overcast,100,2013-11-16 22:53:00
6:53 PM,71.1,60.1,68,30.12,10.0,East,3.5,-,N/A,,Overcast,100,2013-11-16 23:53:00
7:53 PM,70.0,61.0,73,30.12,10.0,East,4.6,-,N/A,,Overcast,90,2013-11-17 00:53:00
8:53 PM,69.1,61.0,75,30.15,10.0,East,3.5,-,N/A,,Overcast,90,2013-11-17 01:53:00
9:53 PM,69.1,62.1,78,30.15,10.0,ESE,5.8,-,N/A,,Overcast,120,2013-11-17 02:53:00
10:53 PM,69.1,62.1,78,30.14,10.0,SE,10.4,-,N/A,,Overcast,130,2013-11-17 03:53:00
11:53 PM,69.1,61.0,75,30.14,10.0,ESE,5.8,-,N/A,,Overcast,120,2013-11-17 04:53:00